CAPE
0 0 0 0 0 0 0 1 1 0 0 0 0 0 0 0 0 0 0 0 0 0
0 0 0 0 0 0 0 0 0 0 0 0 0 0 0 0 0 0 0 0 0 0
0 0 0 0 0 0 0 0 0 0 0 0 0 0 0 0 0 0 0 0 0 0
0 0 0 0 0 0 0 0 0 0 0 0 0 0 0 0 0 0 0 0 0 0
0 0 0 0 0 0 0 0 0 0 0 0 0 0 0 0 0 0 0 0 0 0
0 0 0 0 0 0 0 0 0 0 0 0 0 0 0 0 0 0 0 0 0 0
0 0 0 0 0 0 0 0 0 0 0 0 0 0 0 0 0 0 0 0 0 0
0 0 0 0 0 0 0 0 0 0 0 0 0 0 0 0 0 0 0 0 0 0
0 0 0 0 0 0 0 0 0 0 0 0 0 0 0 0 0 0 0 0 0 0
0 0 0 0 0 0 0 0 0 0 0 0 0 0 0 0 0 0 0 0 0 0
0 0 0 0 0 0 0 0 0 0 0 0 0 0 0 0 0 0 0 0 0 0
0 0 0 0 0 0 0 0 0 0 0 0 0 0 0 0 0 0 0 0 0 0
0 0 0 0 0 0 0 0 0 0 0 0 0 0 0 0 0 0 0 0 0 0
0 0 0 0 0 0 0 0 0 0 0 0 0 1 2 0 0 0 0 0 0 0
CIN
0 0 0 0 0 0 0 0 0 0 0 0 0 0 0 0 0 0 0 0 0 0
0 0 0 0 0 0 0 0 0 0 0 0 0 0 0 0 0 0 0 0 0 0
0 0 0 0 0 0 0 0 0 0 0 0 0 0 0 0 0 0 0 0 0 0
0 0 0 0 0 0 0 0 0 0 0 0 0 0 0 0 0 0 0 0 0 0
0 0 0 0 0 0 0 0 0 0 0 0 0 0 0 0 0 0 0 0 0 0
0 0 0 0 0 0 0 0 0 0 0 0 0 0 0 0 0 0 0 0 0 0
0 0 0 0 0 0 0 0 0 0 0 0 0 0 0 0 0 0 0 0 0 0
0 0 0 0 0 0 0 0 0 0 0 0 0 0 0 0 0 0 0 0 0 0
0 0 0 0 0 0 0 0 0 0 0 0 0 0 0 0 0 0 0 0 0 0
0 0 0 0 0 0 0 0 0 0 0 0 0 0 0 0 0 0 0 0 0 0
0 0 0 0 0 0 0 0 0 0 0 0 0 0 0 0 0 0 0 0 0 0
0 0 0 0 0 0 0 0 0 0 0 0 0 0 0 0 0 0 0 0 0 0
0 0 0 0 0 0 0 0 0 0 0 0 0 0 0 0 0 0 0 0 0 0
0 0 0 0 0 0 0 0 0 0 0 0 0 0 0 0 0 0 0 0 0 0
Wind_Speed
19 21 21 21 22 22 21 21 19 19 19 19 19 18 18 19 21 21 20 19 18 18
18 20 22 23 22 21 20 21 20 20 20 20 19 18 18 20 20 19 19 19 18 18
18 19 20 20 20 20 20 19 19 20 20 21 20 19 19 19 18 19 19 18 18 17
20 19 19 20 19 19 18 18 19 20 20 20 20 19 19 19 18 19 19 18 17 17
21 21 21 20 19 19 19 18 18 19 19 20 20 19 20 19 19 19 19 18 17 16
23 22 23 22 22 19 19 19 19 19 20 20 20 20 20 19 18 18 18 18 18 17
25 24 23 23 21 20 19 20 20 20 20 20 20 20 20 19 18 18 18 18 17 17
28 26 25 23 22 21 20 20 20 20 20 20 20 21 20 20 19 18 18 17 17 16
29 27 26 25 23 22 22 21 21 21 21 21 21 20 20 20 20 19 19 19 17 16
29 28 26 25 24 24 23 22 22 21 21 21 21 20 21 21 21 21 21 19 19 18
27 26 25 24 24 24 23 23 23 22 21 22 22 20 20 21 21 21 21 21 19 19
24 24 24 24 24 24 23 23 23 22 22 22 22 21 20 20 21 22 22 21 20 19
24 24 24 24 23 23 22 22 22 22 22 22 22 19 19 20 21 22 22 21 21 20
24 24 23 23 22 21 21 21 21 21 21 21 20 18 18 20 21 22 22 23 25 23
Wind_Direction
269 274 274 275 276 271 266 263 259 251 253 257 255 255 254 256 261 262 259 260 264 266
277 276 279 280 277 275 270 266 258 253 253 255 256 257 257 263 261 255 254 256 260 265
286 282 281 282 278 277 272 268 262 257 255 254 256 257 260 262 260 254 257 257 256 265
298 292 286 283 279 276 273 268 263 259 259 253 255 257 257 261 260 255 255 255 255 262
302 297 292 286 281 277 271 269 263 263 258 258 257 253 258 256 260 251 248 249 251 255
300 297 293 289 285 279 276 270 268 265 260 259 255 253 260 256 257 252 249 247 248 251
297 295 293 289 284 280 276 273 269 266 263 261 258 258 256 258 257 254 251 252 252 249
296 295 292 289 285 282 278 276 272 269 268 267 263 259 253 254 252 253 251 252 254 255
291 291 289 288 285 280 278 279 276 273 269 268 267 261 252 253 252 252 250 252 254 252
288 287 287 285 284 280 277 280 276 275 273 271 270 262 257 258 258 256 255 253 251 257
287 285 284 282 282 281 278 278 277 277 276 277 274 263 257 257 257 258 258 253 253 255
291 288 285 282 282 281 279 280 278 278 278 278 278 266 259 258 257 258 257 256 255 260
296 292 289 287 284 284 282 282 282 282 281 281 282 268 260 266 261 258 258 260 260 264
299 296 294 292 290 287 285 285 284 284 284 283 282 271 266 266 261 257 258 261 265 269